Wind_Speed
18 57 35 38 28 27 28 47 53 51 47 46 45 44 44 42 40 39 36 35 33 31 31 32 33 34 35 36 36 35 36 38 40 39 36 33 32 35 36 35 34 35 35 33 32
22 51 37 28 28 26 29 38 50 48 45 44 43 43 42 42 40 38 37 35 36 34 32 32 31 32 33 33 33 32 32 33 34 36 34 37 39 38 38 38 37 37 39 36 36
45 53 28 25 28 23 22 29 43 47 43 42 41 40 39 39 39 39 38 37 36 34 34 34 32 32 31 31 29 30 29 29 30 31 33 35 37 39 39 40 42 40 40 40 39
51 31 29 20 22 28 27 34 36 35 37 36 37 37 37 37 38 38 37 37 36 35 34 33 33 31 30 30 29 28 26 27 26 28 30 30 31 35 37 37 43 44 43 42 42
32 31 27 20 18 25 23 25 29 32 34 35 34 35 35 36 37 37 36 36 36 35 35 35 35 34 33 32 32 30 29 31 31 30 30 30 30 33 34 37 38 41 43 44 45
28 27 31 24 21 28 32 37 36 31 28 30 32 32 34 35 35 35 36 36 36 36 37 37 37 36 36 37 36 35 34 34 34 34 34 34 33 33 32 32 36 40 42 44 45
26 22 23 24 23 19 24 27 30 31 32 30 30 31 31 34 35 36 36 36 36 37 39 40 39 39 39 40 38 38 38 38 38 38 37 37 37 37 34 33 34 36 38 41 44
21 19 20 21 23 24 24 22 26 27 29 29 29 29 29 30 32 33 34 35 36 36 38 39 39 39 39 40 40 40 41 41 41 41 42 41 40 41 39 39 39 39 39 39 40
19 15 17 15 14 16 18 20 22 22 23 23 24 26 28 29 30 32 34 34 34 34 35 36 36 36 35 35 36 36 38 39 40 42 43 43 43 45 46 44 43 44 45 46 47
12 11 10 8 7 12 16 20 21 20 20 21 22 23 24 26 27 27 28 28 31 31 31 32 34 35 35 36 36 36 37 37 38 40 40 42 42 42 47 48 48 48 49 51 52
21 9 3 4 4 5 8 12 12 14 16 19 22 23 25 27 27 29 30 31 32 33 33 36 36 38 40 40 41 42 42 42 42 43 43 43 44 46 47 49 50 52 53 54 55
39 33 27 15 1 5 5 6 5 6 6 8 11 13 17 19 23 24 26 28 30 30 32 35 38 40 42 42 43 44 44 45 45 44 45 44 45 49 48 49 52 51 50 51 54
42 41 38 34 33 26 12 6 3 5 3 5 6 8 10 12 13 14 16 18 20 22 24 27 30 32 34 36 37 38 40 42 44 44 45 44 45 46 49 51 50 53 52 52 51
41 41 41 38 35 36 36 33 32 28 24 14 9 6 6 8 9 12 17 18 21 22 24 26 28 29 31 32 32 33 36 37 38 38 38 40 43 42 44 45 45 44 45 46 46
39 38 38 37 34 31 31 30 28 27 29 25 23 21 20 15 14 12 8 7 3 8 15 20 25 29 31 33 34 35 34 34 33 33 32 32 34 35 35 36 39 41 40 42 46
40 37 36 36 34 29 27 26 25 26 26 23 20 19 17 15 13 12 10 10 9 7 7 7 7 9 15 21 27 31 33 35 35 35 34 34 34 32 34 37 39 40 41 39 35
38 37 35 33 31 29 24 19 17 20 22 22 21 19 18 15 15 13 13 12 13 11 9 9 8 10 9 10 10 11 13 18 25 28 30 33 35 33 32 32 28 22 19 18 15
38 37 35 31 29 28 26 24 17 15 18 19 19 19 18 16 15 15 15 17 18 17 18 14 15 12 11 10 9 8 7 7 8 9 12 15 14 14 15 13 12 11 10 9 13
37 37 35 34 30 26 25 25 23 15 12 14 16 17 17 18 17 18 19 19 20 21 20 18 17 13 13 12 9 7 5 3 4 4 6 6 7 7 7 6 4 4 3 8 15
35 35 35 35 34 30 24 23 22 19 14 9 11 13 15 14 13 13 15 17 18 18 19 18 17 13 11 10 9 6 5 3 2 2 4 4 6 4 5 4 4 1 3 8 13
32 32 33 32 34 33 30 24 20 19 18 17 12 9 11 13 15 16 17 18 18 17 17 15 14 13 13 11 8 7 6 5 5 4 2 4 3 3 2 3 1 5 7 11 12
29 30 29 29 29 32 31 31 27 19 16 16 15 15 12 11 12 14 15 15 16 14 14 13 13 13 11 8 5 4 5 4 4 3 2 2 2 3 4 2 5 7 9 10 9
28 28 27 26 27 28 28 30 30 27 21 13 12 13 12 12 11 9 9 10 12 10 9 9 10 12 11 11 9 8 8 10 10 9 9 6 4 2 4 5 9 5 8 14 17
23 25 26 24 23 24 24 25 27 28 28 24 17 12 12 14 12 8 5 5 6 6 6 7 10 10 9 10 10 8 8 9 9 9 10 10 10 8 7 8 7 7 11 16 19
19 22 24 24 22 21 22 22 22 24 26 26 26 23 15 14 15 11 3 4 4 4 6 6 8 8 7 7 7 8 9 9 9 8 8 9 10 12 13 14 14 17 19 20 21
21 19 20 21 20 18 19 20 19 19 20 21 23 25 25 19 13 13 6 5 5 6 7 8 8 9 9 7 8 9 10 10 9 10 12 13 16 15 19 18 19 18 18 21 22
22 22 20 20 19 17 16 16 19 19 17 17 17 19 21 22 22 16 10 11 8 11 12 11 11 12 14 12 13 11 12 12 12 14 14 16 20 19 21 23 21 25 24 22 22
Wind_Direction
192 176 146 149 165 174 184 205 206 209 209 209 212 213 216 218 220 220 221 225 229 232 234 236 238 240 244 245 247 250 251 253 255 256 257 258 254 252 251 251 253 255 253 251 253
150 145 144 158 157 164 163 186 203 206 206 207 210 214 216 218 220 223 224 225 229 231 234 235 238 241 241 243 244 245 247 251 255 256 256 253 250 249 252 252 250 251 252 251 252
137 156 145 137 147 156 165 168 186 199 202 206 210 215 218 220 223 223 225 226 229 233 237 240 240 238 240 241 241 244 246 247 250 251 251 251 253 253 250 253 253 253 253 252 251
127 126 172 127 140 136 140 169 177 189 197 202 207 211 217 219 222 225 228 231 231 232 234 237 239 238 236 237 242 247 248 249 246 250 250 250 250 251 253 255 253 254 255 256 255
102 118 110 131 131 163 175 171 168 184 197 202 206 212 215 220 223 225 228 231 232 234 236 237 238 240 241 241 243 248 250 248 251 252 256 257 255 254 257 255 257 257 255 256 256
62 69 66 102 128 154 170 171 174 179 186 199 204 209 214 219 224 226 229 231 234 237 238 239 241 244 246 246 245 245 246 250 252 255 257 259 262 261 261 263 262 259 259 259 257
85 77 68 87 94 138 159 163 174 181 183 191 200 209 215 219 223 224 227 230 232 236 239 241 242 243 244 246 248 249 251 253 255 256 257 259 260 261 262 262 263 264 264 262 261
82 83 88 87 120 139 149 165 174 182 186 190 200 209 216 222 227 230 231 233 233 234 238 239 240 241 243 246 248 249 250 252 254 255 256 257 260 261 261 262 263 262 262 264 265
71 69 91 94 107 123 150 162 171 187 189 191 198 207 214 220 224 230 234 238 239 238 239 240 241 242 243 244 247 249 251 252 253 253 255 256 258 261 261 260 261 264 266 266 265
82 109 128 144 151 154 166 172 176 185 189 189 194 204 212 216 220 226 228 231 235 237 240 243 246 248 249 250 249 249 252 255 257 257 259 260 260 261 265 265 264 264 265 265 268
66 66 77 128 161 182 185 195 197 205 208 213 217 223 228 229 232 235 239 240 243 245 247 247 246 247 249 250 251 252 253 254 258 260 259 259 261 261 262 266 267 266 267 268 270
55 56 63 68 341 247 203 184 186 186 206 212 223 226 232 236 239 244 247 248 250 253 254 255 255 255 255 257 258 259 261 262 262 263 262 263 261 262 264 266 268 273 275 273 273
54 54 56 57 61 67 69 87 132 178 180 209 231 243 248 252 257 259 260 261 259 259 260 261 263 262 261 261 261 261 262 263 262 261 262 261 261 263 264 267 271 270 273 275 276
53 53 54 59 61 68 72 74 75 76 78 74 65 16 297 262 266 279 276 269 269 267 265 263 263 263 264 264 264 265 263 263 263 263 262 261 264 262 263 267 267 268 270 272 274
54 52 53 56 63 67 66 68 70 67 68 63 63 60 62 76 71 54 50 20 322 276 270 266 260 256 256 257 256 255 258 261 262 261 261 260 260 263 267 265 265 267 270 273 275
54 54 51 52 56 63 68 64 59 58 57 58 58 56 54 53 51 43 38 31 24 12 10 357 338 312 283 272 266 261 256 253 253 255 256 258 261 266 266 266 268 271 273 277 277
51 53 53 50 52 54 57 59 53 53 53 50 48 47 48 48 45 42 41 41 34 22 10 346 330 316 307 304 298 290 284 273 260 257 256 256 258 261 263 266 270 272 272 277 286
50 52 52 53 53 51 52 56 63 45 41 42 43 47 46 39 41 48 51 40 29 25 18 7 351 336 330 326 319 309 296 284 278 243 237 243 245 242 249 256 266 267 266 286 324
42 47 52 53 52 54 51 50 50 59 48 40 32 35 42 46 52 51 45 35 24 18 12 8 5 353 340 340 336 340 347 317 286 239 237 246 233 232 236 243 261 284 299 342 315
37 37 44 49 52 51 53 53 50 50 53 37 31 22 24 23 16 13 17 20 18 14 9 14 15 10 7 9 24 23 15 1 340 285 246 220 198 184 148 177 193 157 349 333 335
31 34 33 40 46 49 48 50 52 48 49 41 29 18 14 10 10 8 12 13 13 16 20 26 33 26 24 20 27 45 55 61 66 76 109 139 99 134 197 175 60 341 333 331 337
27 30 30 28 36 44 48 46 47 51 47 46 42 33 20 7 0 355 356 359 8 15 26 39 46 43 36 44 43 42 67 81 71 60 63 274 292 180 181 218 331 358 1 346 8
21 24 25 25 26 31 41 45 44 46 47 46 42 40 32 21 22 10 353 0 5 23 27 29 30 37 44 53 62 65 66 55 51 52 42 49 33 303 271 306 323 342 341 355 356
10 15 17 19 22 22 26 36 42 41 41 39 40 36 35 38 35 24 343 347 0 23 17 13 28 37 48 55 54 53 44 51 68 68 44 30 20 11 351 326 307 309 328 332 330
355 358 6 9 11 15 16 21 28 36 37 37 36 35 33 35 37 36 9 338 0 360 359 1 8 14 25 24 27 31 32 36 37 26 18 14 13 359 1 352 349 339 327 313 320
339 341 347 354 358 2 8 8 15 17 26 30 33 35 34 38 40 35 23 317 322 330 331 336 342 337 332 347 350 353 356 354 351 348 337 333 331 347 345 342 338 341 334 336 328
339 334 333 337 340 346 349 355 359 5 8 12 17 25 26 28 36 33 24 24 334 312 307 310 315 320 318 322 326 325 323 323 321 317 323 323 325 325 326 326 325 323 328 326 328
Height
5609 5623 5639 5653 5658 5663 5674 5689 5703 5714 5727 5737 5745 5753 5760 5767 5774 5780 5784 5789 5794 5797 5801 5805 5808 5811 5815 5817 5820 5822 5825 5827 5830 5833 5837 5842 5844 5843 5844 5847 5849 5850 5853 5857 5857
5615 5634 5644 5654 5660 5665 5673 5685 5700 5712 5724 5734 5742 5750 5758 5764 5770 5776 5780 5784 5789 5793 5797 5800 5803 5806 5809 5811 5814 5816 5819 5822 5824 5826 5831 5833 5835 5838 5840 5841 5842 5843 5845 5850 5851
5635 5643 5653 5662 5664 5668 5676 5685 5697 5709 5720 5730 5739 5748 5755 5761 5767 5771 5775 5780 5784 5788 5792 5795 5798 5801 5803 5806 5809 5811 5814 5816 5819 5820 5823 5827 5829 5831 5833 5833 5835 5837 5838 5841 5844
5650 5661 5664 5666 5667 5673 5681 5688 5698 5709 5718 5728 5736 5743 5750 5756 5762 5766 5771 5776 5780 5783 5787 5790 5794 5797 5798 5801 5803 5806 5810 5811 5814 5815 5817 5821 5823 5825 5826 5826 5827 5830 5831 5833 5835
5663 5667 5670 5671 5674 5678 5685 5693 5701 5708 5717 5726 5733 5740 5746 5752 5757 5761 5765 5770 5774 5777 5781 5784 5787 5790 5793 5795 5797 5799 5803 5804 5807 5810 5811 5814 5816 5818 5818 5820 5821 5821 5823 5824 5826
5671 5673 5675 5680 5680 5683 5688 5694 5700 5708 5716 5724 5730 5737 5743 5748 5752 5755 5760 5764 5767 5771 5774 5777 5780 5783 5786 5788 5791 5793 5795 5797 5801 5803 5806 5807 5809 5812 5812 5813 5813 5814 5814 5816 5818
5683 5684 5683 5685 5688 5691 5696 5697 5703 5709 5714 5721 5727 5733 5738 5743 5746 5750 5753 5757 5760 5763 5767 5770 5773 5775 5778 5780 5783 5785 5789 5791 5793 5795 5799 5800 5801 5803 5806 5805 5806 5806 5806 5807 5808
5691 5691 5691 5693 5694 5695 5698 5705 5707 5711 5715 5719 5724 5729 5734 5739 5742 5746 5748 5751 5754 5756 5760 5763 5765 5768 5771 5773 5776 5778 5780 5783 5785 5788 5790 5793 5796 5796 5797 5797 5797 5798 5799 5799 5799
5696 5695 5697 5700 5702 5703 5706 5707 5709 5714 5716 5718 5723 5727 5731 5734 5737 5740 5743 5746 5749 5751 5754 5757 5759 5761 5764 5765 5768 5769 5772 5774 5777 5779 5781 5784 5787 5785 5787 5788 5790 5789 5790 5790 5790
5702 5702 5702 5702 5702 5705 5706 5708 5710 5713 5714 5716 5720 5726 5729 5731 5733 5736 5738 5740 5743 5745 5748 5751 5753 5755 5757 5757 5760 5761 5763 5765 5767 5770 5774 5775 5778 5779 5774 5777 5777 5779 5779 5781 5783
5705 5704 5704 5704 5704 5704 5706 5708 5711 5712 5712 5715 5719 5722 5725 5727 5729 5731 5733 5736 5738 5740 5742 5743 5746 5746 5748 5749 5750 5752 5754 5755 5757 5760 5763 5763 5769 5764 5765 5765 5764 5766 5771 5770 5771
5713 5709 5706 5705 5704 5703 5704 5706 5708 5711 5713 5715 5717 5720 5722 5723 5726 5727 5730 5732 5732 5733 5734 5737 5737 5739 5740 5740 5741 5743 5745 5746 5749 5751 5751 5755 5756 5755 5755 5754 5754 5758 5757 5758 5759
5723 5718 5715 5711 5708 5705 5705 5707 5710 5711 5714 5715 5717 5719 5720 5723 5723 5725 5726 5727 5728 5728 5729 5730 5731 5731 5731 5731 5732 5733 5734 5736 5740 5740 5740 5743 5743 5744 5744 5745 5749 5744 5744 5746 5747
5732 5728 5724 5720 5718 5715 5714 5714 5713 5714 5714 5716 5716 5716 5717 5718 5721 5721 5722 5724 5723 5723 5724 5724 5724 5724 5724 5724 5724 5725 5725 5726 5729 5731 5731 5732 5732 5735 5734 5737 5733 5734 5734 5735 5735
5739 5736 5732 5728 5727 5725 5724 5722 5722 5721 5719 5721 5720 5721 5719 5719 5721 5721 5719 5718 5718 5718 5718 5717 5716 5716 5716 5715 5715 5716 5716 5718 5720 5721 5723 5723 5723 5725 5727 5727 5725 5725 5726 5726 5725
5744 5742 5739 5736 5734 5732 5731 5729 5728 5728 5724 5725 5725 5724 5723 5722 5722 5721 5720 5719 5718 5717 5715 5713 5712 5710 5709 5707 5707 5706 5707 5708 5710 5712 5714 5715 5716 5719 5719 5719 5719 5718 5717 5716 5714
5752 5748 5745 5742 5740 5738 5736 5735 5734 5731 5731 5731 5728 5727 5726 5725 5725 5723 5721 5720 5719 5717 5714 5712 5711 5708 5706 5705 5703 5702 5702 5702 5703 5704 5706 5707 5709 5711 5710 5711 5711 5710 5709 5708 5707
5760 5755 5752 5749 5746 5743 5741 5741 5737 5734 5734 5733 5732 5731 5730 5728 5726 5724 5724 5721 5719 5717 5714 5711 5709 5706 5704 5703 5701 5700 5699 5699 5698 5698 5700 5701 5703 5704 5704 5705 5705 5705 5704 5704 5701
5767 5763 5758 5755 5751 5748 5746 5743 5741 5739 5738 5736 5735 5735 5734 5732 5730 5728 5726 5724 5721 5718 5716 5712 5708 5705 5702 5700 5700 5698 5698 5698 5697 5698 5699 5700 5701 5702 5702 5703 5703 5702 5701 5699 5697
5773 5770 5765 5761 5756 5753 5751 5747 5745 5742 5741 5740 5739 5737 5737 5735 5733 5731 5728 5725 5723 5720 5717 5714 5710 5706 5704 5702 5701 5699 5699 5699 5698 5699 5699 5700 5700 5701 5701 5702 5701 5700 5698 5697 5695
5779 5775 5772 5768 5763 5758 5754 5751 5749 5746 5744 5742 5740 5739 5738 5737 5735 5732 5731 5728 5725 5722 5719 5716 5713 5711 5708 5705 5703 5703 5702 5702 5702 5703 5702 5702 5703 5702 5701 5700 5700 5699 5696 5694 5692
5784 5780 5776 5773 5769 5763 5759 5755 5752 5750 5747 5745 5743 5741 5739 5737 5736 5734 5732 5730 5727 5724 5721 5719 5716 5714 5712 5710 5708 5706 5705 5704 5704 5705 5703 5702 5702 5700 5699 5699 5698 5696 5693 5692 5688
5787 5783 5779 5776 5773 5768 5764 5760 5757 5754 5750 5748 5746 5743 5741 5738 5737 5734 5732 5731 5729 5728 5726 5723 5720 5717 5715 5714 5711 5709 5708 5707 5707 5706 5705 5704 5704 5701 5700 5698 5696 5694 5692 5687 5682
5788 5786 5782 5779 5775 5772 5769 5765 5761 5757 5754 5751 5748 5745 5743 5740 5738 5735 5733 5732 5730 5728 5727 5726 5723 5721 5719 5716 5715 5712 5711 5709 5708 5707 5707 5705 5703 5701 5699 5697 5693 5691 5686 5683 5679
5789 5786 5784 5781 5778 5774 5772 5768 5765 5761 5758 5754 5751 5748 5745 5742 5740 5736 5734 5733 5731 5730 5728 5726 5724 5722 5720 5718 5717 5715 5713 5711 5709 5708 5705 5703 5700 5697 5694 5691 5688 5685 5681 5679 5675
5790 5787 5785 5782 5779 5776 5772 5770 5767 5764 5761 5757 5753 5750 5747 5744 5742 5739 5736 5734 5732 5730 5728 5726 5725 5723 5720 5719 5717 5715 5713 5711 5709 5706 5704 5702 5698 5696 5692 5689 5685 5682 5679 5674 5670
5789 5786 5784 5781 5778 5776 5773 5770 5768 5765 5762 5759 5756 5752 5749 5747 5743 5740 5737 5734 5732 5730 5727 5725 5723 5722 5720 5718 5717 5715 5711 5709 5707 5704 5702 5699 5696 5693 5690 5686 5683 5678 5674 5671 5667